world map with TRN marked

TRN - Airport

This information may not be accurate or current and is not valid for navigation or flight planning. No warranty of fitness for any purpose is made or implied.

flag of Piedmontflag of Italy

Donate via PayPal

Additional information is available on the NEW Great Circle Mapper

Location
City:  Turin, Piedmont, Italy
Near (Alt.):Torino
Name:Caselle
ICAO / IATA:LIMF / TRN

Details
Type:Airport (Aerodrome, Airfield)
Use:Public/Civil
Latitude:45°12'03"N (45.200761)
Longitude:7°38'59"E (7.649631)
Datum:WGS 1984
Elevation:989 ft (301 m)
Runways:1
Longest:10827 × 197 ft (3300 × 60 m)

Time
Timezone:UTC+1 (DST+4)
Local Time:

Weather
METAR:LIMF  041350Z 09003KT 050V150 CAVOK 10/M05 Q1024
TAF:LIMF  041100Z 0412/0512 VRB05KT CAVOK

Related Locations
Nearby:
Farthest:CHT: 12214 mi / 19656 km
Waitangi [Tuuta], CIT, NZ

Find:

   beyond  
but within

Other Information
Maps:
Sources:

  


 


Great Circle Mapper   Great Circle Mapper
Great Circle Mapper FAQ   Great Circle Mapper FAQ
  Karl's Home Page
KLSē   KLSē Home
   GC on Facebook
Airlines of the World   Airlines of the World
Donate via PayPal


Copyright © 2004-2019, Karl L. Swartz. All rights reserved.
All trademarks mentioned herein belong to their respective owners.

Please see credits for attribution and copyright information.

Karl Swartz <karl@kls2.com>
  Powered by FreeBSD
Valid HTML 4.01!
Labeled with ICRA
hCard Microformat
Geo Microformat